Location: Aurora Center
(43.5271°N, 98.5894°W)
Time: 15:45:53
(UTC-05:00)

Envisat - Pass Details

Date: 25 June 2024
Orbit: 762 x 764 km, 98.3° (Epoch: 12 July)

Event Time Altitude Azimuth Distance (km) Brightness Sun altitude
Rises 04:07:42 0° 22° (NNE) 3,234 7.9 -14.7°
Reaches altitude 10° 04:10:14 10° 32° (NNE) 2,304 6.9 -14.4°
Maximum altitude 04:14:47 33° 96° (E) 1,274 4.5 -13.9°
Drops below altitude 10° 04:19:18 10° 160° (SSE) 2,288 5.2 -13.5°
Enters shadow 04:20:45 - 166° (SSE) 2,815 5.6 -13.3°
